STARLINK-1555, 46032

Orbit data source: Space-Track

STARLINK-1555, 46032 is a payload satellite owned by SpaceX/Seattle (US) in LEO that was launched on Fri, 07 Aug 2020 UTC via an FALCON 9 launch vehicle from the Air Force Eastern Test Range (AFETR). Payload-class satellites include a variety of spacecraft equipped with specific instruments for various scientific and technological missions. These include communications satellites like Starlink; space stations such as the ISS; scientific satellites like the Hubble; Earth observation satellites from companies like Planet Labs, Umbra, and HawkEye 360; GPS; miniature CubeSats for education and research; and military/defense satellites.

Loading next visibility...
Identifier
46032, 2020-055F
Orbit
LEO
Country
Flag of USUS
Related business
Manufacturer
SpaceX/Seattle
Mission
Operational Commercial Communications
Bus & Motor
STARLINK, Unknown motor
Mass
260 kg wet, ~248 kg dry
Launch date (UTC)
2020-08-07 (6 years ago)
Launch vehicle
FALCON 9
Launch site
Air Force Eastern Test Range (AFETR)
Object type
Payload
Rocket body
Debris
Shape & HBR
Box + 1 Pan, 10.1 m
Radar Cross Section
13.562 m², Large (>1 m²)

Expand to show TLE details & history
Last TLE update: 12 hours ago

TLE from 12 hours ago
0 STARLINK-1555
1 46032U 20055F   26171.50003471  .00058210  00000-0  18734-2 0  9995
2 46032  53.1600   9.1273 0001152 100.2203 264.2637 15.31692703  5890
Epoch: 2026-06-20T12:00Z
TLE epoch observation values (Epoch: 2026-06-20T12:00:02.998Z)
Latitude
3.51843°
Longitude
-76.97337°
Altitude
471.353 km
Speed
7.632 km/s
True Right ascension
00h 47m 00s
True Declination
3° 29' 48"
Sunlit
Object was in daylight at epoch
Visualization orbit readout
Latitude
Unknown
Longitude
Unknown
Altitude
Unknown
Speed
Unknown
Apparent Right ascension
Unknown
Apparent Declination
Unknown
Sunlit
N/A
Visualization observer readout
Local Sidereal Time
11:20:26
Azimuth
Unknown
Elevation
Unknown
Doppler factor
Unknown
Orbital elements
Apogee altitude
471.807 km
Perigee altitude
470.229 km
Semi-major axis
6,849.155 km
Eccentricity
0.00012
Inclination
53.16°
RAAN
9.1273°
Arg. of periapsis
100.2203°
True anomaly
264.25057°
Mean anomaly
264.2637°
Eccentric anomaly
264.25713°
Mean motion
3.82902 °/min
Orbital period
94.02 mins
BSTAR
0.0018734
Loading maneuver chart data...
Computing Atmospheric mass density...

Documentation

Showing up to 5 results
|